• en France
  • Liste des pays
  • À 7 jours
  • Température de l'eau
  • Carte satellitaire
  • Carte météo
  • Widgets météo
  • user-avatar
    Se connecter

    Météo par heure à Neuquén

    Ce jour, 22 Septembre, Samedi

    Heure Température Précipitation Vent Pression Humidité
    00:00 +18°C° 0 mm 10 m/s 724 mmHg 37%
    01:00 +17°C° 0 mm 11 m/s 724 mmHg 36%
    02:00 +17°C° 0 mm 11 m/s 724 mmHg 36%
    03:00 +17°C° 0 mm 11 m/s 724 mmHg 36%
    04:00 +17°C° 0 mm 10 m/s 724 mmHg 36%
    05:00 +16°C° 0 mm 11 m/s 724 mmHg 38%
    06:00 +15°C° 0 mm 12 m/s 725 mmHg 41%
    07:00 +15°C° 0 mm 12 m/s 726 mmHg 43%
    08:00 +17°C° 0 mm 14 m/s 726 mmHg 36%
    09:00 +18°C° 0 mm 15 m/s 726 mmHg 29%
    10:00 +19°C° 0 mm 17 m/s 727 mmHg 22%
    11:00 +20°C° 0 mm 17 m/s 727 mmHg 21%
    12:00 +20°C° 0 mm 17 m/s 726 mmHg 20%
    13:00 +22°C° 0 mm 17 m/s 726 mmHg 20%
    14:00 +20°C° 0 mm 16 m/s 726 mmHg 20%
    15:00 +20°C° 0 mm 15 m/s 726 mmHg 21%
    16:00 +20°C° 0 mm 14 m/s 727 mmHg 21%
    17:00 +19°C° 0 mm 13 m/s 727 mmHg 24%
    18:00 +17°C° 0 mm 12 m/s 727 mmHg 26%
    19:00 +16°C° 0 mm 11 m/s 728 mmHg 29%
    20:00 +16°C° 0 mm 11 m/s 728 mmHg 31%
    21:00 +14°C° 0 mm 11 m/s 728 mmHg 33%
    22:00 +13°C° 0 mm 11 m/s 729 mmHg 36%
    23:00 +13°C° 0 mm 10 m/s 729 mmHg 37%

    Demain, 23 Septembre, Dimanche

    Heure Température Précipitation Vent Pression Humidité
    00:00 +12°C° 0 mm 10 m/s 729 mmHg 37%
    01:00 +12°C° 0 mm 9 m/s 729 mmHg 38%
    02:00 +11°C° 0 mm 8 m/s 729 mmHg 39%
    03:00 +11°C° 0 mm 7 m/s 730 mmHg 40%
    04:00 +11°C° 0 mm 6 m/s 730 mmHg 41%
    05:00 +11°C° 0 mm 8 m/s 731 mmHg 39%
    06:00 +12°C° 0 mm 9 m/s 731 mmHg 38%
    07:00 +12°C° 0 mm 11 m/s 732 mmHg 36%
    08:00 +14°C° 0 mm 12 m/s 732 mmHg 32%
    09:00 +15°C° 0 mm 13 m/s 733 mmHg 28%
    10:00 +17°C° 0 mm 14 m/s 733 mmHg 24%
    11:00 +17°C° 0 mm 13 m/s 733 mmHg 23%
    12:00 +17°C° 0 mm 13 m/s 733 mmHg 21%
    13:00 +18°C° 0 mm 13 m/s 733 mmHg 20%
    14:00 +17°C° 0 mm 13 m/s 733 mmHg 21%
    15:00 +17°C° 0 mm 12 m/s 733 mmHg 22%
    16:00 +15°C° 0 mm 12 m/s 733 mmHg 24%
    17:00 +14°C° 0 mm 10 m/s 734 mmHg 27%
    18:00 +13°C° 0 mm 9 m/s 735 mmHg 31%
    19:00 +12°C° 0 mm 8 m/s 736 mmHg 34%
    20:00 +11°C° 0 mm 7 m/s 736 mmHg 37%
    21:00 +11°C° 0 mm 7 m/s 736 mmHg 40%
    22:00 +10°C° 0 mm 7 m/s 737 mmHg 42%
    23:00 +9°C° 0 mm 6 m/s 737 mmHg 44%

    Après-demain, 24 Septembre, Lundi

    Heure Température Précipitation Vent Pression Humidité
    00:00 +10°C° 0 mm 4 m/s 737 mmHg 46%
    01:00 +9°C° 0 mm 3 m/s 737 mmHg 48%
    02:00 +9°C° 0 mm 3 m/s 736 mmHg 50%
    03:00 +9°C° 0 mm 2 m/s 736 mmHg 51%
    04:00 +9°C° 0 mm 1 m/s 736 mmHg 53%
    05:00 +10°C° 0 mm 1 m/s 736 mmHg 51%
    06:00 +10°C° 0 mm 1 m/s 737 mmHg 49%
    07:00 +10°C° 0 mm 2 m/s 737 mmHg 46%
    08:00 +12°C° 0 mm 2 m/s 737 mmHg 42%
    09:00 +12°C° 0 mm 3 m/s 736 mmHg 37%
    10:00 +14°C° 0 mm 4 m/s 736 mmHg 33%
    11:00 +15°C° 0 mm 4 m/s 735 mmHg 30%
    12:00 +16°C° 0 mm 5 m/s 735 mmHg 27%
    13:00 +19°C° 0 mm 5 m/s 734 mmHg 24%
    14:00 +19°C° 0 mm 4 m/s 733 mmHg 23%
    15:00 +20°C° 0 mm 4 m/s 733 mmHg 22%
    16:00 +20°C° 0 mm 3 m/s 732 mmHg 20%
    17:00 +19°C° 0 mm 3 m/s 733 mmHg 23%
    18:00 +19°C° 0 mm 2 m/s 733 mmHg 25%
    19:00 +18°C° 0 mm 2 m/s 733 mmHg 27%
    20:00 +17°C° 0 mm 2 m/s 733 mmHg 29%
    21:00 +16°C° 0 mm 3 m/s 733 mmHg 31%
    22:00 +16°C° 0 mm 3 m/s 733 mmHg 33%
    23:00 +14°C° 0 mm 4 m/s 733 mmHg 34%

    25 Septembre, Mardi

    Heure Température Précipitation Vent Pression Humidité
    00:00 +14°C° 0 mm 5 m/s 733 mmHg 35%
    01:00 +13°C° 0 mm 5 m/s 733 mmHg 36%
    02:00 +13°C° 0 mm 5 m/s 733 mmHg 38%
    03:00 +12°C° 0 mm 5 m/s 733 mmHg 40%
    04:00 +12°C° 0 mm 5 m/s 733 mmHg 41%
    05:00 +12°C° 0 mm 5 m/s 733 mmHg 42%
    06:00 +11°C° 0 mm 6 m/s 734 mmHg 42%
    07:00 +11°C° 0 mm 6 m/s 734 mmHg 43%
    08:00 +14°C° 0 mm 6 m/s 734 mmHg 38%
    09:00 +15°C° 0 mm 5 m/s 734 mmHg 34%
    10:00 +16°C° 0 mm 5 m/s 734 mmHg 29%
    11:00 +17°C° 0 mm 5 m/s 733 mmHg 27%
    12:00 +19°C° 0 mm 5 m/s 733 mmHg 25%
    13:00 +20°C° 0 mm 5 m/s 733 mmHg 22%
    14:00 +20°C° 0 mm 6 m/s 732 mmHg 22%
    15:00 +20°C° 0 mm 6 m/s 732 mmHg 21%
    16:00 +20°C° 0 mm 7 m/s 732 mmHg 20%
    17:00 +18°C° 0 mm 7 m/s 732 mmHg 23%
    18:00 +17°C° 0 mm 7 m/s 733 mmHg 27%
    19:00 +15°C° 0 mm 7 m/s 734 mmHg 30%
    20:00 +15°C° 0 mm 6 m/s 734 mmHg 31%
    21:00 +14°C° 0 mm 5 m/s 735 mmHg 32%
    22:00 +14°C° 0 mm 4 m/s 735 mmHg 33%
    23:00 +14°C° 0.1 mm 4 m/s 735 mmHg 34%

    26 Septembre, Mercredi

    Heure Température Précipitation Vent Pression Humidité
    00:00 +13°C° 0.1 mm 3 m/s 735 mmHg 35%
    01:00 +13°C° 0.1 mm 3 m/s 736 mmHg 36%
    02:00 +12°C° 0.1 mm 3 m/s 736 mmHg 36%
    03:00 +12°C° 0.1 mm 4 m/s 736 mmHg 36%
    04:00 +11°C° 0.1 mm 4 m/s 736 mmHg 36%
    05:00 +10°C° 0.2 mm 5 m/s 737 mmHg 38%
    06:00 +10°C° 0.2 mm 5 m/s 737 mmHg 40%
    07:00 +10°C° 0.2 mm 5 m/s 738 mmHg 43%
    08:00 +10°C° 0.2 mm 6 m/s 738 mmHg 43%
    09:00 +10°C° 0.2 mm 6 m/s 738 mmHg 43%
    10:00 +10°C° 0.2 mm 6 m/s 738 mmHg 43%
    11:00 +10°C° 0.3 mm 6 m/s 738 mmHg 44%
    12:00 +10°C° 0.3 mm 5 m/s 738 mmHg 44%
    13:00 +10°C° 0.3 mm 5 m/s 738 mmHg 45%
    14:00 +10°C° 0.2 mm 5 m/s 738 mmHg 45%
    15:00 +11°C° 0.2 mm 4 m/s 738 mmHg 45%
    16:00 +11°C° 0.2 mm 4 m/s 738 mmHg 45%
    17:00 +11°C° 0.1 mm 4 m/s 738 mmHg 47%
    18:00 +11°C° 0.1 mm 4 m/s 739 mmHg 48%
    19:00 +10°C° 0.1 mm 4 m/s 739 mmHg 50%
    20:00 +10°C° 0 mm 4 m/s 739 mmHg 53%
    21:00 +10°C° 0 mm 4 m/s 740 mmHg 55%
    22:00 +10°C° 0 mm 4 m/s 740 mmHg 58%
    23:00 +8°C° 0.1 mm 5 m/s 739 mmHg 61%

    27 Septembre, Jeudi

    Heure Température Précipitation Vent Pression Humidité
    00:00 +8°C° 0.1 mm 5 m/s 739 mmHg 64%
    01:00 +8°C° 0.1 mm 5 m/s 739 mmHg 67%
    02:00 +7°C° 0 mm 6 m/s 739 mmHg 69%
    03:00 +7°C° 0 mm 6 m/s 739 mmHg 72%
    04:00 +6°C° 0 mm 7 m/s 738 mmHg 74%
    05:00 +6°C° 0.3 mm 7 m/s 738 mmHg 75%
    06:00 +6°C° 0.3 mm 7 m/s 738 mmHg 77%
    07:00 +6°C° 0.3 mm 7 m/s 738 mmHg 78%
    08:00 +6°C° 0.4 mm 7 m/s 738 mmHg 76%
    09:00 +6°C° 0.4 mm 8 m/s 737 mmHg 75%
    10:00 +7°C° 0.4 mm 8 m/s 737 mmHg 73%
    11:00 +7°C° 0.1 mm 8 m/s 736 mmHg 72%
    12:00 +8°C° 0.1 mm 9 m/s 735 mmHg 70%
    13:00 +8°C° 0.1 mm 9 m/s 734 mmHg 69%
    14:00 +8°C° 0.4 mm 9 m/s 733 mmHg 70%
    15:00 +9°C° 0.4 mm 8 m/s 733 mmHg 71%
    16:00 +9°C° 0.4 mm 8 m/s 732 mmHg 73%
    17:00 +9°C° 0.7 mm 8 m/s 732 mmHg 75%
    18:00 +8°C° 0.7 mm 9 m/s 732 mmHg 77%
    19:00 +8°C° 0.7 mm 9 m/s 731 mmHg 80%
    20:00 +8°C° 0.7 mm 9 m/s 731 mmHg 81%
    21:00 +8°C° 0.7 mm 9 m/s 730 mmHg 82%
    22:00 +9°C° 0.7 mm 8 m/s 730 mmHg 83%
    23:00 +9°C° 0.6 mm 8 m/s 729 mmHg 83%
    Voir plus